H1 CPF 2 NER 2021 7 9 9 190 01 glonass121 H2 1000702 9121 36401 2021 7 9 0 0 0 2021 7 12 23 45 0 900 1 1 0 0 0 1 H9 10 0 59404 0.00000 0 -5654287.310 -22485471.857 10718696.137 10 0 59404 900.00000 0 -5943035.706 -23609699.163 7745489.986 10 0 59404 1800.00000 0 -6264073.117 -24338346.634 4622522.112 10 0 59404 2700.00000 0 -6559891.857 -24660212.716 1410219.161 10 0 59404 3600.00000 0 -6772783.739 -24577756.902 -1829329.307 10 0 59404 4500.00000 0 -6847487.177 -24106900.319 -5033554.937 10 0 59404 5400.00000 0 -6733735.318 -23276287.794 -8140600.275 10 0 59404 6300.00000 0 -6388599.401 -22126042.816 -11090492.719 10 0 59404 7200.00000 0 -5778530.222 -20706067.475 -13826281.665 10 0 59404 8100.00000 0 -4881012.921 -19073957.609 -16295118.797 10 0 59404 9000.00000 0 -3685765.980 -17292618.756 -18449262.424 10 0 59404 9900.00000 0 -2195433.801 -15427680.539 -20246988.011 10 0 59404 10800.00000 0 -425742.548 -13544815.161 -21653388.661 10 0 59404 11700.00000 0 1594889.473 -11707069.641 -22641050.963 10 0 59404 12600.00000 0 3826273.489 -9972321.113 -23190593.460 10 0 59404 13500.00000 0 6217869.099 -8390959.825 -23291057.112 10 0 59404 14400.00000 0 8710644.927 -7003895.590 -22940139.308 10 0 59404 15300.00000 0 11239307.275 -5840970.835 -22144265.404 10 0 59404 16200.00000 0 13734807.361 -4919847.151 -20918494.415 10 0 59404 17100.00000 0 16127025.424 -4245413.147 -19286258.239 10 0 59404 18000.00000 0 18347521.532 -3809740.217 -17278936.931 10 0 59404 18900.00000 0 20332239.109 -3592589.978 -14935275.655 10 0 59404 19800.00000 0 22024047.965 -3562453.966 -12300652.312 10 0 59404 20700.00000 0 23375019.055 -3678083.325 -9426208.282 10 0 59404 21600.00000 0 24348333.709 -3890444.856 -6367857.995 10 0 59404 22500.00000 0 24919744.711 -4145020.814 -3185196.190 10 0 59404 23400.00000 0 25078525.218 -4384354.334 59675.324 10 0 59404 24300.00000 0 24827863.323 -4550730.861 3303377.329 10 0 59404 25200.00000 0 24184683.906 -4588879.434 6482513.394 10 0 59404 26100.00000 0 23178904.392 -4448576.206 9534933.531 10 0 59404 27000.00000 0 21852155.871 -4087036.535 12400973.987 10 0 59404 27900.00000 0 20256024.461 -3470991.034 15024646.400 10 0 59404 28800.00000 0 18449888.855 -2578354.940 17354750.575 10 0 59404 29700.00000 0 16498447.482 -1399417.989 19345887.331 10 0 59404 30600.00000 0 14469041.839 62496.776 20959350.419 10 0 59404 31500.00000 0 12428891.033 1790933.497 22163879.481 10 0 59404 32400.00000 0 10442355.545 3756767.172 22936259.679 10 0 59404 33300.00000 0 8568346.160 5919210.082 23261757.178 10 0 59404 34200.00000 0 6857986.949 8227317.297 23134383.479 10 0 59404 35100.00000 0 5352629.263 10621926.693 22556985.361 10 0 59404 36000.00000 0 4082298.064 13037950.908 21541160.823 10 0 59404 36900.00000 0 3064632.925 15406924.363 20107004.865 10 0 59404 37800.00000 0 2304364.658 17659698.474 18282692.160 10 0 59404 38700.00000 0 1793345.807 19729172.814 16103906.575 10 0 59404 39600.00000 0 1511130.031 21552949.032 13613130.197 10 0 59404 40500.00000 0 1426072.676 23075798.411 10858806.761 10 0 59404 41400.00000 0 1496903.435 24251842.179 7894396.372 10 0 59404 42300.00000 0 1674702.996 25046355.977 4777340.133 10 0 59404 43200.00000 0 1905199.244 25437125.783 1567954.474 10 0 59404 44100.00000 0 2131286.084 25415301.159 -1671724.050 10 0 59404 45000.00000 0 2295659.229 24985712.358 -4879122.119 10 0 59404 45900.00000 0 2343459.050 24166639.714 -7992319.615 10 0 59404 46800.00000 0 2224810.572 22989045.896 -10951224.841 10 0 59404 47700.00000 0 1897155.284 21495303.304 -13698713.969 10 0 59404 48600.00000 0 1327277.959 19737469.137 -16181714.540 10 0 59404 49500.00000 0 492944.171 17775178.748 -18352213.956 10 0 59404 50400.00000 0 -615920.075 15673243.303 -20168174.966 10 0 59404 51300.00000 0 -1996556.762 13499049.539 -21594341.869 10 0 59404 52200.00000 0 -3633242.075 11319867.509 -22602922.739 10 0 59404 53100.00000 0 -5497698.402 9200176.172 -23174134.837 10 0 59404 54000.00000 0 -7550038.115 7199116.193 -23296602.457 10 0 59404 54900.00000 0 -9740203.350 5368174.618 -22967598.690 10 0 59404 55800.00000 0 -12009845.458 3749197.249 -22193124.930 10 0 59404 56700.00000 0 -14294569.350 2372811.608 -20987824.630 10 0 59404 57600.00000 0 -16526452.236 1257327.076 -19374730.576 10 0 59404 58500.00000 0 -18636733.855 408159.565 -17384848.013 10 0 59404 59400.00000 0 -20558567.140 -182193.518 -15056579.118 10 0 59404 60300.00000 0 -22229714.524 -533625.180 -12434997.649 10 0 59404 61200.00000 0 -23595076.037 -677358.223 -9570986.011 10 0 59404 62100.00000 0 -24608941.442 -654395.674 -6520250.347 10 0 59404 63000.00000 0 -25236869.403 -513547.313 -3342232.293 10 0 59404 63900.00000 0 -25457111.883 -309116.139 -98939.142 10 0 59404 64800.00000 0 -25261521.115 -98344.117 3146283.635 10 0 59404 65700.00000 0 -24655898.665 61272.383 6330011.692 10 0 59404 66600.00000 0 -23659770.218 114680.846 9390005.878 10 0 59404 67500.00000 0 -22305594.943 11866.927 12266453.779 10 0 59404 68400.00000 0 -20637442.967 -289768.375 14903161.871 10 0 59404 69300.00000 0 -18709197.889 -823352.398 17248672.531 10 0 59404 70200.00000 0 -16582361.841 -1610894.803 19257282.208 10 0 59404 71100.00000 0 -14323557.659 -2662123.172 20889939.641 10 0 59404 72000.00000 0 -12001835.522 -3973850.178 22115005.959 10 0 59404 72900.00000 0 -9685899.099 -5529899.017 22908862.086 10 0 59404 73800.00000 0 -7441368.910 -7301589.527 23256352.492 10 0 59404 74700.00000 0 -5328198.202 -9248763.218 23151058.045 10 0 59404 75600.00000 0 -3398349.001 -11321302.679 22595394.584 10 0 59404 76500.00000 0 -1693824.137 -13461080.058 21600537.390 10 0 59404 77400.00000 0 -245135.196 -15604251.627 20186175.196 10 0 59404 78300.00000 0 929732.710 -17683801.504 18380100.672 10 0 59404 79200.00000 0 1825819.705 -19632227.867 16217647.170 10 0 59404 80100.00000 0 2451136.376 -21384259.649 13740984.258 10 0 59404 81000.00000 0 2826061.558 -22879491.234 10998286.869 10 0 59404 81900.00000 0 2982221.280 -24064826.651 8042794.843 10 0 59404 82800.00000 0 2960898.609 -24896633.145 4931781.423 10 0 59404 83700.00000 0 2811043.115 -25342516.429 1725450.464 10 0 59404 84600.00000 0 2586964.674 -25382645.759 -1514216.949 10 0 59404 85500.00000 0 2345808.733 -25010575.533 -4724645.059 10 0 59405 0.00000 0 2144918.706 -24233530.849 -7843853.595 10 0 59405 900.00000 0 2039195.600 -23072145.839 -10811634.536 10 0 59405 1800.00000 0 2078563.633 -21559666.974 -13570693.415 10 0 59405 2700.00000 0 2305648.548 -19740652.761 -16067736.270 10 0 59405 3600.00000 0 2753763.285 -17669224.224 -18254482.142 10 0 59405 4500.00000 0 3445286.113 -15406936.435 -20088583.442 10 0 59405 5400.00000 0 4390498.834 -13020357.738 -21534437.787 10 0 59405 6300.00000 0 5586934.820 -10578454.670 -22563876.521 10 0 59405 7200.00000 0 7019265.986 -8149888.862 -23156716.999 10 0 59405 8100.00000 0 8659736.045 -5800335.892 -23301167.817 10 0 59405 9000.00000 0 10469125.235 -3589935.681 -22994078.286 10 0 59405 9900.00000 0 12398209.765 -1570979.319 -22241025.936 10 0 59405 10800.00000 0 14389658.685 214071.938 -21056238.353 10 0 59405 11700.00000 0 16380292.282 1734152.661 -19462348.506 10 0 59405 12600.00000 0 18303610.237 2970677.911 -17489985.733 10 0 59405 13500.00000 0 20092485.600 3918099.808 -15177207.723 10 0 59405 14400.00000 0 21681912.530 4583911.041 -12568782.159 10 0 59405 15300.00000 0 23011692.157 4988093.462 -9715330.130 10 0 59405 16200.00000 0 24028942.446 5162033.722 -6672346.736 10 0 59405 17100.00000 0 24690324.320 5146950.916 -3499117.416 10 0 59405 18000.00000 0 24963887.574 4991902.682 -257551.591 10 0 59405 18900.00000 0 24830455.884 4751455.042 2989042.511 10 0 59405 19800.00000 0 24284489.793 4483116.435 6177216.144 10 0 59405 20700.00000 0 23334389.026 4244647.178 9244644.411 10 0 59405 21600.00000 0 22002220.001 4091361.423 12131369.431 10 0 59405 22500.00000 0 20322879.446 4073539.188 14780995.436 10 0 59405 23400.00000 0 18342729.882 4234061.186 17141809.937 10 0 59405 24300.00000 0 16117765.612 4606369.258 19167807.207 10 0 59405 25200.00000 0 13711388.198 5212840.677 20819592.768 10 0 59405 26100.00000 0 11191887.017 6063646.146 22065150.611 10 0 59405 27000.00000 0 8629732.633 7156139.958 22880458.369 10 0 59405 27900.00000 0 6094797.992 8474807.519 23249939.294 10 0 59405 28800.00000 0 3653624.776 9991771.196 23166743.632 10 0 59405 29700.00000 0 1366849.255 11667831.637 22632855.795 10 0 59405 30600.00000 0 -713105.783 13453999.061 21659027.349 10 0 59405 31500.00000 0 -2543978.406 15293448.533 20264539.303 10 0 59405 32400.00000 0 -4095175.745 17123815.949 18476800.442 10 0 59405 33300.00000 0 -5348783.417 18879737.680 16330791.366 10 0 59405 34200.00000 0 -6300037.750 20495527.309 13868366.632 10 0 59405 35100.00000 0 -6957244.992 21907877.861 11137429.701 10 0 59405 36000.00000 0 -7341154.542 23058477.524 8190997.381 10 0 59405 36900.00000 0 -7483815.664 23896430.956 5086172.257 10 0 59405 37800.00000 0 -7426968.118 24380386.834 1883042.817 10 0 59405 38700.00000 0 -7220035.945 24480284.700 -1356468.055 10 0 59405 39600.00000 0 -6917809.431 24178650.047 -4569784.812 10 0 59405 40500.00000 0 -6577912.628 23471385.171 -7694869.682 10 0 59405 41400.00000 0 -6258162.144 22368023.916 -10671400.394 10 0 59405 42300.00000 0 -6013926.952 20891440.198 -13441914.094 10 0 59405 43200.00000 0 -5895598.729 19077022.218 -15952897.207 10 0 59405 44100.00000 0 -5946277.554 16971345.735 -18155802.050 10 0 59405 45000.00000 0 -6199769.029 14630399.986 -20007972.095 10 0 59405 45900.00000 0 -6678976.353 12117437.737 -21473459.436 10 0 59405 46800.00000 0 -7394755.013 9500536.132 -22523719.626 10 0 59405 47700.00000 0 -8345279.182 6849966.957 -23138170.835 10 0 59405 48600.00000 0 -9515948.304 4235482.787 -23304606.410 10 0 59405 49500.00000 0 -10879840.523 1723629.413 -23019452.062 10 0 59405 50400.00000 0 -12398697.176 -624805.509 -22287861.293 10 0 59405 51300.00000 0 -14024400.676 -2757102.537 -21123645.293 10 0 59405 52200.00000 0 -15700887.345 -4630583.388 -19549036.297 10 0 59405 53100.00000 0 -17366418.021 -6214163.919 -17594286.434 10 0 59405 54000.00000 0 -18956113.583 -7489421.234 -15297107.257 10 0 59405 54900.00000 0 -20404650.273 -8451128.700 -12701958.442 10 0 59405 55800.00000 0 -21649001.792 -9107234.765 -9859197.598 10 0 59405 56700.00000 0 -22631111.972 -9478284.947 -6824106.455 10 0 59405 57600.00000 0 -23300383.654 -9596310.299 -3655811.806 10 0 59405 58500.00000 0 -23615876.247 -9503228.820 -416122.662 10 0 59405 59400.00000 0 -23548116.314 -9248827.830 2831692.616 10 0 59405 60300.00000 0 -23080441.730 -8888414.011 6024163.576 10 0 59405 61200.00000 0 -22209819.967 -8480232.718 9098882.309 10 0 59405 62100.00000 0 -20947103.911 -8082768.658 11995748.220 10 0 59405 63000.00000 0 -19316713.153 -7752045.393 14658165.987 10 0 59405 63900.00000 0 -17355753.938 -7539041.155 17034170.817 10 0 59405 64800.00000 0 -15112615.409 -7487333.194 19077457.119 10 0 59405 65700.00000 0 -12645102.473 -7631072.554 20748289.202 10 0 59405 66600.00000 0 -10018185.559 -7993376.273 22014275.522 10 0 59405 67500.00000 0 -7301463.561 -8585205.483 22850991.582 10 0 59405 68400.00000 0 -4566447.911 -9404776.347 23242440.119 10 0 59405 69300.00000 0 -1883782.727 -10437527.583 23181340.995 10 0 59405 70200.00000 0 679482.339 -11656644.260 22669247.017 10 0 59405 71100.00000 0 3062453.162 -13024113.886 21716485.478 10 0 59405 72000.00000 0 5212680.481 -14492268.367 20341928.758 10 0 59405 72900.00000 0 7088084.326 -16005745.310 18572600.545 10 0 59405 73800.00000 0 8658436.284 -17503784.999 16443127.193 10 0 59405 74700.00000 0 9906341.194 -18922765.859 13995046.480 10 0 59405 75600.00000 0 10827681.161 -20198872.002 11275988.367 10 0 59405 76500.00000 0 11431507.113 -21270781.522 8338744.365 10 0 59405 77400.00000 0 11739385.888 -22082263.987 5240243.942 10 0 59405 78300.00000 0 11784233.146 -22584579.837 2040457.603 10 0 59405 79200.00000 0 11608683.209 -22738583.024 -1198752.676 10 0 59405 80100.00000 0 11263065.530 -22516440.644 -4414814.293 10 0 59405 81000.00000 0 10803073.182 -21902899.303 -7545634.626 10 0 59405 81900.00000 0 10287220.943 -20896046.449 -10530779.955 10 0 59405 82800.00000 0 9774198.721 -19507535.525 -13312621.562 10 0 59405 83700.00000 0 9320230.063 -17762265.474 -15837428.729 10 0 59405 84600.00000 0 8976545.098 -15697527.075 -18056389.370 10 0 59405 85500.00000 0 8787072.485 -13361650.120 -19926540.116 10 0 59406 0.00000 0 8786446.148 -10812205.479 -21411589.348 10 0 59406 900.00000 0 8998410.266 -8113833.766 -22482618.364 10 0 59406 1800.00000 0 9434688.605 -5335788.437 -23118647.236 10 0 59406 2700.00000 0 10094368.730 -2549291.621 -23307054.751 10 0 59406 3600.00000 0 10963826.807 175190.006 -23043843.291 10 0 59406 4500.00000 0 12017200.244 2770638.367 -22333742.199 10 0 59406 5400.00000 0 13217390.901 5176035.941 -21190145.747 10 0 59406 6300.00000 0 14517560.255 7338671.176 -19634884.550 10 0 59406 7200.00000 0 15863056.829 9216101.188 -17697832.288 10 0 59406 8100.00000 0 17193697.531 10777689.131 -15416352.787 10 0 59406 9000.00000 0 18446308.768 12005650.622 -12834595.766 10 0 59406 9900.00000 0 19557421.115 12895563.641 -10002653.061 10 0 59406 10800.00000 0 20466003.724 13456318.872 -6975590.404 10 0 59406 11700.00000 0 21116121.726 13709511.183 -3812373.032 10 0 59406 12600.00000 0 21459402.209 13688296.990 -574706.421 10 0 59406 13500.00000 0 21457201.743 13435765.738 2674184.186 10 0 59406 14400.00000 0 21082380.725 13002895.108 5870809.878 10 0 59406 15300.00000 0 20320606.523 12446178.128 8952682.905 10 0 59406 16200.00000 0 19171127.803 11825025.000 11859562.941 10 0 59406 17100.00000 0 17646985.415 11199052.561 14534657.854 10 0 59406 18000.00000 0 15774649.983 10625379.126 16925752.995 10 0 59406 18900.00000 0 13593101.374 10156042.135 18986245.057 10 0 59406 19800.00000 0 11152389.448 9835650.212 20676058.932 10 0 59406 20700.00000 0 8511737.995 9699370.579 21962428.989 10 0 59406 21600.00000 0 5737273.062 9771337.609 22820529.646 10 0 59406 22500.00000 0 2899472.470 10063549.558 23233943.746 10 0 59406 23400.00000 0 70444.757 10575298.981 23194960.930 10 0 59406 24300.00000 0 -2678848.023 11293159.156 22704702.045 10 0 59406 25200.00000 0 -5281307.644 12191524.932 21773069.244 10 0 59406 26100.00000 0 -7676244.616 13233682.932 20418524.888 10 0 59406 27000.00000 0 -9811646.276 14373363.854 18667705.702 10 0 59406 27900.00000 0 -11646076.063 15556709.752 16554881.512 10 0 59406 28800.00000 0 -13150127.850 16724572.226 14121270.719 10 0 59406 29700.00000 0 -14307378.256 17815044.302 11414226.986 10 0 59406 30600.00000 0 -15114800.936 18766119.593 8486313.633 10 0 59406 31500.00000 0 -15582629.021 19518367.740 5394284.094 10 0 59406 32400.00000 0 -15733674.703 20017514.965 2197988.043 10 0 59406 33300.00000 0 -15602136.993 20216822.994 -1040776.206 10 0 59406 34200.00000 0 -15231949.362 20079168.273 -4259441.633 10 0 59406 35100.00000 0 -14674737.477 19578735.943 -7395863.270 10 0 59406 36000.00000 0 -13987472.759 18702258.955 -10389498.282 10 0 59406 36900.00000 0 -13229919.548 17449751.294 -13182554.228 10 0 59406 37800.00000 0 -12461981.692 15834704.828 -15721085.165 10 0 59406 38700.00000 0 -11741058.308 13883740.880 -17956016.260 10 0 59406 39600.00000 0 -11119517.902 11635729.687 -19844078.701 10 0 59406 40500.00000 0 -10642395.265 9140412.229 -21348638.322 10 0 59406 41400.00000 0 -10345406.648 6456578.952 -22440402.927 10 0 59406 42300.00000 0 -10253366.001 3649878.002 -23097995.100 10 0 59406 43200.00000 0 -10379069.052 790340.668 -23308379.383 10 0 59406 44100.00000 0 -10722693.209 -2050276.410 -23067134.833 10 0 59406 45000.00000 0 -11271740.430 -4801224.558 -22378566.310 10 0 59406 45900.00000 0 -12001528.053 -7395460.549 -21255650.511 10 0 59406 46800.00000 0 -12876209.914 -9772197.387 -19719815.416 10 0 59406 47700.00000 0 -13850287.836 -11879202.600 -17800554.909 10 0 59406 48600.00000 0 -14870552.615 -13674747.823 -15534883.434 10 0 59406 49500.00000 0 -15878374.868 -15129127.138 -12966638.852 10 0 59406 50400.00000 0 -16812250.389 -16225678.925 -10145645.119 10 0 59406 51300.00000 0 -17610492.819 -16961266.585 -7126749.741 10 0 59406 52200.00000 0 -18213959.004 -17346196.239 -3968754.064 10 0 59406 53100.00000 0 -18568689.993 -17403573.509 -733257.629 10 0 59406 54000.00000 0 -18628353.355 -17168125.940 2516559.887 10 0 59406 54900.00000 0 -18356380.370 -16684541.010 5717193.636 10 0 59406 55800.00000 0 -17727704.516 -16005391.058 8806078.592 10 0 59406 56700.00000 0 -16730024.739 -15188734.867 11722837.290 10 0 59406 57600.00000 0 -15364537.701 -14295499.884 14410483.350 10 0 59406 58500.00000 0 -13646106.493 -13386758.734 16816554.740 10 0 59406 59400.00000 0 -11602857.941 -12521018.108 18894152.717 10 0 59406 60300.00000 0 -9275225.533 -11751637.162 20602864.785 10 0 59406 61200.00000 0 -6714479.135 -11124486.442 21909552.904 10 0 59406 62100.00000 0 -3980804.529 -10675947.231 22788991.713 10 0 59406 63000.00000 0 -1141014.788 -10431335.827 23224345.042 10 0 59406 63900.00000 0 1734009.188 -10403818.397 23207472.763 10 0 59406 64800.00000 0 4572040.959 -10593860.447 22739063.822 10 0 59406 65700.00000 0 7302279.571 -10989231.865 21828594.896 10 0 59406 66600.00000 0 9858053.953 -11565564.722 20494117.653 10 0 59406 67500.00000 0 12179349.131 -12287437.688 18761880.833 10 0 59406 68400.00000 0 14215050.930 -13109939.032 16665796.401 10 0 59406 69300.00000 0 15924818.198 -13980640.445 14246761.731 10 0 59406 70200.00000 0 17280507.691 -14841897.310 11551852.211 10 0 59406 71100.00000 0 18267095.663 -15633378.024 8633400.682 10 0 59406 72000.00000 0 18883061.132 -16294716.043 5547981.970 10 0 59406 72900.00000 0 19140218.089 -16768173.877 2355322.099 10 0 59406 73800.00000 0 19063006.479 -17001208.264 -882847.262 10 0 59406 74700.00000 0 18687273.682 -16948830.256 -4103967.736 10 0 59406 75600.00000 0 18058598.895 -16575662.750 -7245845.041 10 0 59406 76500.00000 0 17230231.028 -15857610.514 -10247830.172 10 0 59406 77400.00000 0 16260726.212 -14783073.763 -13051969.753 10 0 59406 78300.00000 0 15211382.865 -13353654.881 -15604105.202 10 0 59406 79200.00000 0 14143580.256 -11584328.357 -17854901.293 10 0 59406 80100.00000 0 13116130.290 -9503065.734 -19760785.862 10 0 59406 81000.00000 0 12182751.600 -7149929.219 -21284783.958 10 0 59406 81900.00000 0 11389770.224 -4575669.013 -22397231.376 10 0 59406 82800.00000 0 10774142.106 -1839879.579 -23076354.259 10 0 59406 83700.00000 0 10361879.895 991211.993 -23308703.546 10 0 59406 84600.00000 0 10166950.370 3847237.176 -23089435.189 10 0 59406 85500.00000 0 10190689.934 6656356.309 -22422429.374 10 0 59407 0.00000 0 10421764.566 9347999.769 -21320244.651 10 0 59407 900.00000 0 10836678.598 11855567.863 -19803905.300 10 0 59407 1800.00000 0 11400812.898 14118978.140 -17902524.087 10 0 59407 2700.00000 0 12069952.532 16086953.297 -15652764.335 10 0 59407 3600.00000 0 12792240.586 17718954.451 -13098149.966 10 0 59407 4500.00000 0 13510478.003 18986676.309 -10288234.653 10 0 59407 5400.00000 0 14164672.607 19875040.264 -7277644.945 10 0 59407 6300.00000 0 14694729.213 20382641.556 -4125015.317 10 0 59407 7200.00000 0 15043165.581 20521629.973 -891836.200 10 0 59407 8100.00000 0 15157736.922 20317027.953 2358761.575 10 0 59407 9000.00000 0 14993854.886 19805514.488 5563260.504 10 0 59407 9900.00000 0 14516695.376 19033726.635 8659021.453 10 0 59407 10800.00000 0 13702902.768 18056151.827 11585532.805 10 0 59407 11700.00000 0 12541815.618 16932702.156 14285616.659 10 0 59407 12600.00000 0 11036159.912 15726075.805 16706566.039 10 0 59407 13500.00000 0 9202179.240 14499019.921 18801188.887 10 0 59407 14400.00000 0 7069195.935 13311613.159 20528737.097 10 0 59407 15300.00000 0 4678621.983 12218684.756 21855701.649 10 0 59407 16200.00000 0 2082462.253 11267480.388 22756458.433 10 0 59407 17100.00000 0 -658625.891 10495673.600 23213752.877 10 0 59407 18000.00000 0 -3477633.789 9929806.058 23219015.238 10 0 59407 18900.00000 0 -6303766.059 9584220.813 22772502.201 10 0 59407 19800.00000 0 -9065160.621 9460531.183 21883264.084 10 0 59407 20700.00000 0 -11691650.451 9547644.875 20568940.425 10 0 59407 21600.00000 0 -14117452.504 9822339.294 18855390.045 10 0 59407 22500.00000 0 -16283673.129 10250360.920 16776164.644 10 0 59407 23400.00000 0 -18140527.569 10787999.877 14371837.802 10 0 59407 24300.00000 0 -19649183.768 11384071.412 11689203.616 10 0 59407 25200.00000 0 -20783156.674 11982219.518 8780361.294 10 0 59407 26100.00000 0 -21529198.106 12523445.191 5701703.894 10 0 59407 27000.00000 0 -21887648.215 12948753.027 2512830.705 10 0 59407 27900.00000 0 -21872236.732 13201805.603 -724596.191 10 0 59407 28800.00000 0 -21509344.584 13231475.177 -3948029.835 10 0 59407 29700.00000 0 -20836758.392 12994186.939 -7095229.227 10 0 59407 30600.00000 0 -19901970.768 12455956.784 -10105441.588 10 0 59407 31500.00000 0 -18760097.515 11594039.299 -12920554.793 10 0 59407 32400.00000 0 -17471498.158 10398117.561 -15486199.562 10 0 59407 33300.00000 0 -16099197.933 8870984.918 -17752781.941 10 0 59407 34200.00000 0 -14706217.351 7028689.483 -19676427.759 10 0 59407 35100.00000 0 -13352919.008 4900133.657 -21219822.285 10 0 59407 36000.00000 0 -12094480.710 2526142.931 -22352929.949 10 0 59407 36900.00000 0 -10978599.056 -41960.277 -23053580.732 10 0 59407 37800.00000 0 -10043518.508 -2744221.922 -23307911.891 10 0 59407 38700.00000 0 -9316468.111 -5514286.918 -23110655.848 10 0 59407 39600.00000 0 -8812571.800 -8281905.676 -22465267.349 10 0 59407 40500.00000 0 -8534279.180 -10975615.513 -21383885.632 10 0 59407 41400.00000 0 -8471342.463 -13525487.765 -19887130.028 10 0 59407 42300.00000 0 -8601342.823 -15865827.592 -18003730.424 10 0 59407 43200.00000 0 -8890746.348 -17937714.497 -15769997.153 10 0 59407 44100.00000 0 -9296447.315 -19691276.988 -13229138.140 10 0 59407 45000.00000 0 -9767735.372 -21087604.908 -10430434.612 10 0 59407 45900.00000 0 -10248604.443 -22100217.451 -7428289.960 10 0 59407 46800.00000 0 -10680305.713 -22716023.080 -4281169.587 10 0 59407 47700.00000 0 -11004035.623 -22935728.839 -1050452.630 10 0 59407 48600.00000 0 -11163643.082 -22773680.141 2200781.090 10 0 59407 49500.00000 0 -11108238.475 -22257136.752 5409003.558 10 0 59407 50400.00000 0 -10794590.790 -21425015.321 8511503.701 10 0 59407 51300.00000 0 -10189207.999 -20326152.319 11447637.914 10 0 59407 52200.00000 0 -9270009.514 -19017162.316 14160038.949 10 0 59407 53100.00000 0 -8027517.449 -17559984.303 16595756.987 10 0 59407 54000.00000 0 -6465514.468 -16019222.241 18707308.654 10 0 59407 54900.00000 0 -4601139.461 -14459394.677 20453612.047 10 0 59407 55800.00000 0 -2464416.894 -12942211.704 21800788.740 10 0 59407 56700.00000 0 -97240.171 -11523995.679 22722817.153 10 0 59407 57600.00000 0 2448147.236 -10253355.024 23202025.266 10 0 59407 58500.00000 0 5111107.797 -9169208.855 23229414.322 10 0 59407 59400.00000 0 7824919.860 -8299244.265 22804809.005 10 0 59407 60300.00000 0 10519343.929 -7658869.001 21936833.191 10 0 59407 61200.00000 0 13123337.425 -7250700.808 20642713.881 10 0 59407 62100.00000 0 15567804.763 -7064611.654 18947919.239 10 0 59407 63000.00000 0 17788268.888 -7078321.674 16885639.652 10 0 59407 63900.00000 0 19727354.266 -7258514.704 14496123.527 10 0 59407 64800.00000 0 21336980.040 -7562425.774 11825881.947 10 0 59407 65700.00000 0 22580174.492 -7939831.697 8926778.432 10 0 59407 66600.00000 0 23432437.992 -8335359.671 5855021.875 10 0 59407 67500.00000 0 23882600.572 -8691016.198 2670082.125 10 0 59407 68400.00000 0 23933141.080 -8948830.080 -566451.266 10 0 59407 69300.00000 0 23599956.983 -9053499.080 -3792045.850 10 0 59407 70200.00000 0 22911596.223 -8954930.152 -6944417.041 10 0 59407 71100.00000 0 21907984.310 -8610567.799 -9962711.361 10 0 59407 72000.00000 0 20638700.093 -7987414.089 -12788660.864 10 0 59407 72900.00000 0 19160871.797 -7063656.491 -15367688.289 10 0 59407 73800.00000 0 17536779.984 -5829835.651 -17649943.423 10 0 59407 74700.00000 0 15831265.866 -4289503.903 -19591252.283 10 0 59407 75600.00000 0 14109051.144 -2459345.744 -21153962.262 10 0 59407 76500.00000 0 12432079.103 -368753.166 -22307668.022 10 0 59407 77400.00000 0 10856986.081 1941129.176 -23029804.639 10 0 59407 78300.00000 0 9432807.326 4418852.591 -23306096.586 10 0 59407 79200.00000 0 8199012.138 7004550.186 -23130853.249 10 0 59407 80100.00000 0 7183950.243 9632185.061 -22507104.011 10 0 59407 81000.00000 0 6403774.924 12232070.757 -21446568.476 10 0 59407 81900.00000 0 5861889.246 14733561.857 -19969460.164 10 0 59407 82800.00000 0 5548940.355 17067804.569 -18104124.905 10 0 59407 83700.00000 0 5443364.171 19170433.569 -15886518.388 10 0 59407 84600.00000 0 5512459.529 20984102.475 -13359530.491 10 0 59407 85500.00000 0 5713948.292 22460740.993 -10572167.559 99